This is the latest recevied weather packets stored in our database for station/object N4RCT. If no packets are shown the sender has not sent any weather packets the latest 10 day(s).
| Time | Temp. | Humidity | Pressure | Rain* | Wind** | Luminosity | Snow |
|---|---|---|---|---|---|---|---|
| 1777853185 | 15.56° C | 70% | 1016.3 hPa | 0 mm | - | 7 W/m² | - |
| 1777852882 | 16.11° C | 67% | 1016.3 hPa | 0 mm | - | 10 W/m² | - |
| 1777852580 | 16.67° C | 62% | 1016.2 hPa | 0 mm | - | 11 W/m² | - |
| 1777852276 | 16.67° C | 61% | 1016.1 hPa | 0 mm | - | 13 W/m² | - |
| 1777851975 | 17.22° C | 56% | 1016.1 hPa | 0 mm | - | 14 W/m² | - |
| 1777851672 | 17.22° C | 56% | 1016.2 hPa | 0 mm | - | 16 W/m² | - |
| 1777851369 | 17.78° C | 56% | 1016.1 hPa | 0 mm | - | 18 W/m² | - |
| 1777851064 | 17.78° C | 53% | 1016 hPa | 0 mm | - | 19 W/m² | - |
| 1777850762 | 17.78° C | 53% | 1016.1 hPa | 0 mm | - | 20 W/m² | - |
| 1777850459 | 18.33° C | 50% | 1016 hPa | 0 mm | - | 22 W/m² | - |
| 1777850157 | 18.33° C | 54% | 1016.3 hPa | 0 mm | - | 23 W/m² | - |
| 1777849853 | 18.33° C | 52% | 1016.2 hPa | 0 mm | - | 23 W/m² | - |
| 1777849550 | 18.33° C | 50% | 1016.3 hPa | 0 mm | - | 24 W/m² | - |
| 1777849247 | 18.89° C | 50% | 1016.3 hPa | 0 mm | - | 26 W/m² | - |
| 1777848944 | 18.89° C | 51% | 1016.3 hPa | 0 mm | - | 29 W/m² | - |
| 1777848639 | 18.89° C | 52% | 1016.4 hPa | 0 mm | - | 27 W/m² | - |
| 1777848337 | 18.89° C | 56% | 1016.2 hPa | 0 mm | - | 29 W/m² | - |
| 1777848035 | 19.44° C | 48% | 1016.4 hPa | 0 mm | - | 30 W/m² | - |
| 1777847733 | 19.44° C | 46% | 1016.3 hPa | 0 mm | - | 30 W/m² | - |
| 1777847428 | 19.44° C | 45% | 1016.3 hPa | 0 mm | - | 31 W/m² | - |
| 1777847126 | 19.44° C | 45% | 1016.5 hPa | 0 mm | - | 35 W/m² | - |
| 1777846824 | 19.44° C | 45% | 1016.2 hPa | 0 mm | - | 32 W/m² | - |
| 1777846522 | 19.44° C | 48% | 1016.4 hPa | 0 mm | - | 33 W/m² | - |
| 1777846219 | 19.44° C | 47% | 1016.3 hPa | 0 mm | - | 35 W/m² | - |
| 1777845915 | 19.44° C | 48% | 1016.6 hPa | 0 mm | - | 36 W/m² | - |
* Rain latest hour (hover to see other rain measurements)
** Current wind speed in m/s (hover to see current wind gust speed)